Location: Fort Worth, Tx
(32.7431°N, 97.3695°W)
Time: 04:41:17
(UTC-04:00)

Vanguard 3 - Pass Details

Date: 29 February 2024
Orbit: 510 x 3234 km, 33.3° (Epoch: 24 April)

Event Time Altitude Azimuth Distance (km) Brightness Sun altitude
Rises 19:26:57 0° 228° (SW) 5,679 12.5 -0.9°
Reaches altitude 10° 19:30:16 10° 224° (SW) 4,978 12.1 -1.6°
Maximum altitude 19:45:43 60° 149° (SSE) 3,373 10.2 -4.8°
Drops below altitude 10° 20:04:59 10° 76° (ENE) 6,066 10.9 -8.9°
Enters shadow 20:05:37 - 75° (ENE) 6,188 11.0 -9.0°
